Flag Weather past 2 weeks in Christchurch, New Zealand

Now
54 °F

Cool.


Feels Like: 51 °F
Forecast: 51 / 72 °F
Wind: 8 mph from North

Location: Christchurch Airport

Current Time: Nov 25, 2014 at 3:09:28 AM

Latest Report: Nov 25, 2014 at 2:30 AM


Visibility: N/A

Pressure: 29.86 "Hg

Humidity: 94%

Dew point: 52 °F

Location of ChristchurchLocation

Historic Weather in Christchurch — Graph

°F

Christchurch temperature yesterday

Maximum temperature yesterday: 75 °F (at 11:30 AM)
Minimum temperature yesterday: 46 °F (at 4:00 AM)
Average temperature yesterday: 61 °F

Past Weeks' High & Low Weather Summary

 TemperatureHumidityPressure
High84 °F (Nov 22, 12:00 PM)100% (Nov 18, 1:30 AM)30.04 "Hg (Nov 18, 1:30 AM)
Low32 °F (Nov 20, 5:30 AM)19% (Nov 15, 1:30 PM)28.94 "Hg (Nov 15, 5:30 AM)
Average57 °F61%29.53 "Hg
* Reported Nov 10 2:00 AM — Nov 25 2:00 AM, Christchurch, Weather by CustomWeather, © 2014

Note: Actual official high and low records may vary slightly from our data, if they occured in-between our weather recording intervals... More about our weather records

Advertising

Christchurch weather history for previous 24 hours

 ConditionsComfort  
Time TempWeatherWind HumidityBarometerVisibility
2:00 AM
Nov 25
52 °FCool.5 mph94%29.86 "HgN/A
1:30 AM52 °FCool.6 mph88%29.83 "HgN/A
1:00 AM55 °FCool.3 mph82%29.83 "HgN/A
12:30 AM55 °FCool.6 mph77%29.83 "HgN/A
12:00 AM59 °FCool.9 mph72%29.83 "HgN/A
11:30 PM
Nov 24
59 °FCool.13 mph68%29.83 "HgN/A
11:00 PM59 °FCool.13 mph72%29.86 "HgN/A
10:30 PM59 °FCool.13 mph68%29.83 "HgN/A
10:00 PM61 °FCool.13 mph63%29.83 "HgN/A
9:30 PM61 °FCool.15 mph63%29.83 "HgN/A
9:00 PM61 °FCool.17 mph63%29.83 "HgN/A
8:30 PM63 °FMild.17 mph59%29.83 "HgN/A
8:00 PM63 °FMild.18 mph59%29.83 "HgN/A
7:30 PM63 °FMild.22 mph59%29.83 "HgN/A
7:00 PM64 °FMild.20 mph52%29.83 "HgN/A
6:30 PM66 °FMild.23 mph49%29.83 "HgN/A
6:00 PM68 °FMild.23 mph46%29.83 "HgN/A
5:30 PM68 °FMild.25 mph46%29.83 "HgN/A
5:00 PM70 °FMild.24 mph43%29.86 "HgN/A
4:30 PM70 °FMild.22 mph43%29.86 "HgN/A
4:00 PM70 °FMild.23 mph38%29.86 "HgN/A
3:30 PM72 °FMild.23 mph38%29.86 "HgN/A
3:00 PM72 °FMild.23 mph38%29.89 "HgN/A
2:30 PM72 °FMild.22 mph38%29.89 "HgN/A
2:00 PM73 °FMild.20 mph38%29.89 "HgN/A
1:30 PM72 °FMild.20 mph41%29.89 "HgN/A
12:30 PM73 °FMild.15 mph38%29.92 "HgN/A
12:00 PM73 °FMild.13 mph38%29.92 "HgN/A
11:30 AM75 °FMild.3 mph36%29.92 "HgN/A
11:00 AM73 °FMild.3 mph36%29.92 "HgN/A
10:30 AM72 °FMild.5 mph44%29.92 "HgN/A
10:00 AM68 °FMild.5 mph49%29.92 "HgN/A
9:30 AM66 °FMild.5 mph52%29.92 "HgN/A
9:00 AM64 °FMild.6 mph60%29.92 "HgN/A
8:30 AM61 °FCool.7 mph63%29.92 "HgN/A
8:00 AM59 °FCool.5 mph72%29.92 "HgN/A
7:30 AM55 °FCool.3 mph82%29.89 "HgN/A
7:00 AM52 °FCool.3 mph88%29.89 "HgN/A
6:30 AM48 °FCool.5 mph87%29.86 "HgN/A
6:00 AM50 °FCool.2 mph82%29.86 "HgN/A
5:30 AM48 °FCool.3 mph87%29.83 "HgN/A
5:00 AM46 °FCool.7 mph100%29.83 "Hg5 mi
4:30 AM46 °FCool.1 mph100%29.83 "Hg5 mi
4:00 AM46 °FCool.5 mph100%29.80 "Hg4 mi
3:30 AM50 °FCool.5 mph100%29.83 "Hg5 mi
3:00 AM50 °FPassing clouds.1 mph100%29.80 "HgN/A
Weather by CustomWeather, © 2014

See weather overviewHow to use our weather pages